Flag for Australia Weather past 2 weeks in Tamworth, New South Wales, Australia

Now
72 °F

Clear.


Feels Like: 77 °F
Forecast: 43 / 65 °F
Wind: 9 mph from Northwest

Location: Tamworth Airport

Current Time: May 5, 2015 at 5:23:54 PM

Latest Report: May 5, 2015 at 5:00 PM


Visibility: N/A

Pressure: 29.83 "Hg

Humidity: 44%

Dew point: 48 °F

Location of TamworthLocation

Historic Weather in Tamworth — Graph

°F

Tamworth temperature yesterday

Maximum temperature yesterday: 75 °F (at 4:00 PM)
Minimum temperature yesterday: 54 °F (at 11:00 PM)
Average temperature yesterday: 62 °F

Past Weeks' High & Low Weather Summary

 TemperatureHumidityPressure
High79 °F (May 2, 3:00 PM)94% (Apr 21, 12:30 AM)30.36 "Hg (Apr 21, 12:30 AM)
Low39 °F (Apr 28, 1:30 AM)28% (Apr 28, 3:30 PM)29.74 "Hg (Apr 25, 2:00 PM)
Average59 °F71%30.01 "Hg
* Reported Apr 20 4:00 PM — May 5 4:00 PM, Tamworth, Weather by CustomWeather, © 2015

Note: Actual official high and low records may vary slightly from our data, if they occured in-between our weather recording intervals... More about our weather records

Advertising

Tamworth weather history for previous 24 hours

 ConditionsComfort  
Time TempWeatherWind HumidityBarometerVisibility
4:00 PM
Tue, May 5
75 °FSunny.14 mph39%29.83 "HgN/A
3:30 PM75 °FSunny.16 mph39%29.86 "HgN/A
3:00 PM77 °FSunny.15 mph36%29.83 "HgN/A
2:30 PM77 °FSunny.17 mph39%29.83 "HgN/A
2:00 PM75 °FSunny.15 mph44%29.86 "HgN/A
1:30 PM75 °FScattered clouds.17 mph44%29.86 "HgN/A
1:00 PM73 °FPartly sunny.13 mph50%29.86 "HgN/A
12:30 PM73 °FScattered clouds.17 mph50%29.89 "HgN/A
12:00 PM75 °FScattered clouds.15 mph47%29.89 "HgN/A
11:30 AM75 °FScattered clouds.13 mph54%29.92 "HgN/A
11:00 AM72 °FScattered clouds.7 mph61%29.92 "HgN/A
10:30 AM70 °FSunny.6 mph64%29.95 "HgN/A
10:00 AM68 °FSunny.7 mph64%29.95 "HgN/A
9:30 AM66 °FSunny.1 mph73%29.95 "HgN/A
9:00 AM63 °FSunny.1 mph77%29.95 "HgN/A
8:30 AM59 °FSunny.2 mph88%29.95 "HgN/A
8:00 AM55 °FSunny.3 mph94%29.95 "HgN/A
7:48 AM55 °FSunny.3 mph94%29.95 "HgN/A
7:00 AM48 °FCool.No wind87%29.95 "Hg1 mi
6:30 AM50 °FSunny.No wind94%29.95 "Hg3 mi
6:00 AM48 °FScattered clouds.1 mph94%29.95 "Hg1 mi
5:30 AM48 °FScattered clouds.3 mph94%29.92 "Hg0 mi
5:00 AM50 °FCool.2 mph94%29.92 "Hg0 mi
4:00 AM50 °FCool.No wind94%29.95 "Hg0 mi
3:30 AM52 °FCool.No wind94%29.95 "Hg1 mi
3:00 AM52 °FCool.No wind88%29.95 "Hg0 mi
2:30 AM50 °FPassing clouds.3 mph88%29.95 "Hg1 mi
2:00 AM52 °FPassing clouds.No wind88%29.95 "Hg1 mi
1:00 AM54 °FPassing clouds.No wind94%29.95 "Hg2 mi
12:30 AM52 °FCool.No wind88%29.95 "Hg1 mi
12:00 AM54 °FClear.2 mph94%29.98 "HgN/A
11:30 PM
Mon, May 4
54 °FClear.1 mph94%29.98 "Hg3 mi
11:00 PM54 °FPassing clouds.No wind88%29.98 "Hg1 mi
10:00 PM55 °FClear.No wind88%29.98 "HgN/A
9:30 PM57 °FClear.5 mph82%29.98 "HgN/A
9:00 PM57 °FClear.3 mph82%29.98 "HgN/A
8:30 PM59 °FClear.6 mph88%29.98 "HgN/A
8:00 PM59 °FPassing clouds.6 mph82%29.98 "HgN/A
7:30 PM59 °FClear.5 mph82%29.98 "HgN/A
7:00 PM61 °FClear.8 mph77%29.95 "HgN/A
6:30 PM63 °FClear.8 mph77%29.95 "HgN/A
6:00 PM64 °FClear.7 mph68%29.95 "HgN/A
5:30 PM66 °FClear.8 mph64%29.95 "HgN/A
5:00 PM70 °FClear.7 mph60%29.95 "HgN/A
Weather by CustomWeather, © 2015

See weather overviewHow to use our weather pages